Time,TemperatureF,DewpointF,PressureIn,WindDirection,WindDirectionDegrees,WindSpeedMPH,WindSpeedGustMPH,Humidity,HourlyPrecipIn,Conditions,Clouds,dailyrainin,SoftwareType,DateUTC
2013-07-29 00:03:00,60.7,60.0,29.95,SW,221,0.0,-999.0,96,-99.99,,,0.66,weatherlink.com 1.10,2013-07-29 04:03:00,
2013-07-29 00:18:00,60.5,60.0,29.95,SW,221,0.0,-999.0,97,-99.99,,,0.66,weatherlink.com 1.10,2013-07-29 04:18:00,
2013-07-29 00:33:00,60.2,59.0,29.95,SW,221,0.0,-999.0,97,-99.99,,,0.66,weatherlink.com 1.10,2013-07-29 04:33:00,
2013-07-29 00:48:00,59.9,59.0,29.95,SW,221,0.0,-999.0,97,-99.99,,,0.66,weatherlink.com 1.10,2013-07-29 04:48:00,
2013-07-29 01:34:00,59.3,59.0,29.95,SW,221,0.0,-999.0,97,-99.99,,,0.66,weatherlink.com 1.10,2013-07-29 05:34:00,
2013-07-29 02:04:00,58.9,58.0,29.95,SW,221,0.0,-999.0,97,-99.99,,,0.66,weatherlink.com 1.10,2013-07-29 06:04:00,
2013-07-29 02:34:00,58.9,58.0,29.95,SW,221,0.0,-999.0,97,-99.99,,,0.66,weatherlink.com 1.10,2013-07-29 06:34:00,
2013-07-29 02:49:00,59.1,59.0,29.95,SW,221,0.0,-999.0,98,-99.99,,,0.66,weatherlink.com 1.10,2013-07-29 06:49:00,
2013-07-29 03:04:00,59.4,59.0,29.95,SW,221,0.0,-999.0,98,-99.99,,,0.66,weatherlink.com 1.10,2013-07-29 07:04:00,
2013-07-29 03:34:00,59.3,59.0,29.96,SW,221,0.0,-999.0,97,-99.99,,,0.67,weatherlink.com 1.10,2013-07-29 07:34:00,
2013-07-29 03:49:00,59.4,59.0,29.96,SW,221,0.0,-999.0,98,-99.99,,,0.67,weatherlink.com 1.10,2013-07-29 07:49:00,
2013-07-29 04:04:00,59.3,59.0,29.96,SW,221,0.0,-999.0,97,-99.99,,,0.67,weatherlink.com 1.10,2013-07-29 08:04:00,
2013-07-29 04:19:00,59.2,58.0,29.97,SW,221,0.0,-999.0,97,-99.99,,,0.67,weatherlink.com 1.10,2013-07-29 08:19:00,
2013-07-29 04:49:00,58.8,58.0,29.97,SW,221,0.0,-999.0,97,-99.99,,,0.67,weatherlink.com 1.10,2013-07-29 08:49:00,
2013-07-29 05:04:00,58.4,58.0,29.96,SW,221,0.0,-999.0,97,-99.99,,,0.67,weatherlink.com 1.10,2013-07-29 09:04:00,
2013-07-29 05:19:00,58.2,57.0,29.97,SW,221,0.0,-999.0,97,-99.99,,,0.67,weatherlink.com 1.10,2013-07-29 09:19:00,
2013-07-29 05:49:00,58.1,57.0,29.97,SW,221,0.0,-999.0,97,-99.99,,,0.67,weatherlink.com 1.10,2013-07-29 09:49:00,
2013-07-29 06:04:00,58.1,57.0,29.98,SW,221,0.0,-999.0,97,-99.99,,,0.67,weatherlink.com 1.10,2013-07-29 10:04:00,
2013-07-29 06:19:00,58.2,57.0,29.98,SW,221,0.0,-999.0,97,-99.99,,,0.67,weatherlink.com 1.10,2013-07-29 10:19:00,
2013-07-29 06:34:00,58.4,58.0,29.98,SW,221,0.0,-999.0,97,-99.99,,,0.67,weatherlink.com 1.10,2013-07-29 10:34:00,
2013-07-29 06:49:00,58.8,58.0,29.98,SW,221,2.0,-999.0,96,-99.99,,,0.67,weatherlink.com 1.10,2013-07-29 10:49:00,
2013-07-29 07:04:00,59.3,58.0,29.98,SW,221,0.0,-999.0,96,-99.99,,,0.67,weatherlink.com 1.10,2013-07-29 11:04:00,
2013-07-29 07:50:00,62.2,61.0,29.98,SW,231,0.0,-999.0,94,-99.99,,,0.67,weatherlink.com 1.10,2013-07-29 11:50:00,
2013-07-29 08:21:00,64.1,60.0,29.99,West,264,0.0,-999.0,87,-99.99,,,0.67,weatherlink.com 1.10,2013-07-29 12:21:00,
2013-07-29 09:05:00,66.5,59.0,30.00,WSW,244,2.0,-999.0,77,-99.99,,,0.67,weatherlink.com 1.10,2013-07-29 13:05:00,
2013-07-29 09:20:00,66.5,59.0,30.00,WNW,284,2.0,-999.0,76,-99.99,,,0.67,weatherlink.com 1.10,2013-07-29 13:20:00,
2013-07-29 09:50:00,67.9,59.0,30.00,WSW,254,5.0,-999.0,74,-99.99,,,0.67,weatherlink.com 1.10,2013-07-29 13:50:00,
2013-07-29 10:05:00,69.0,58.0,30.01,WNW,303,3.0,-999.0,69,-99.99,,,0.67,weatherlink.com 1.10,2013-07-29 14:05:00,
2013-07-29 10:20:00,67.8,58.0,30.01,West,261,0.0,-999.0,71,-99.99,,,0.67,weatherlink.com 1.10,2013-07-29 14:20:00,
2013-07-29 10:35:00,69.0,58.0,30.01,West,269,6.0,-999.0,69,-99.99,,,0.67,weatherlink.com 1.10,2013-07-29 14:35:00,
2013-07-29 10:50:00,68.8,57.0,30.01,West,271,3.0,-999.0,67,-99.99,,,0.67,weatherlink.com 1.10,2013-07-29 14:50:00,
2013-07-29 11:50:00,70.9,56.0,30.00,West,278,5.0,-999.0,59,-99.99,,,0.67,weatherlink.com 1.10,2013-07-29 15:50:00,
2013-07-29 12:20:00,71.8,58.0,30.01,WNW,295,4.0,-999.0,63,-99.99,,,0.67,weatherlink.com 1.10,2013-07-29 16:20:00,
2013-07-29 12:35:00,71.9,58.0,30.02,SW,226,1.0,-999.0,62,-99.99,,,0.67,weatherlink.com 1.10,2013-07-29 16:35:00,
2013-07-29 13:20:00,72.6,57.0,30.02,West,263,6.0,-999.0,58,-99.99,,,0.67,weatherlink.com 1.10,2013-07-29 17:20:00,
2013-07-29 14:05:00,70.6,57.0,30.02,WNW,291,0.0,-999.0,63,-99.99,,,0.00,weatherlink.com 1.10,2013-07-29 18:05:00,
2013-07-29 14:21:00,70.4,57.0,30.02,West,261,0.0,-999.0,63,-99.99,,,0.00,weatherlink.com 1.10,2013-07-29 18:21:00,
2013-07-29 14:36:00,69.5,58.0,30.02,WNW,284,0.0,-999.0,67,-99.99,,,0.00,weatherlink.com 1.10,2013-07-29 18:36:00,
2013-07-29 14:51:00,68.7,58.0,30.03,West,265,0.0,-999.0,69,-99.99,,,0.00,weatherlink.com 1.10,2013-07-29 18:51:00,
2013-07-29 15:51:00,67.6,59.0,30.04,NNW,336,0.0,-999.0,73,-99.99,,,0.00,weatherlink.com 1.10,2013-07-29 19:51:00,
2013-07-29 16:21:00,67.9,59.0,30.04,WNW,302,0.0,-999.0,72,-99.99,,,0.00,weatherlink.com 1.10,2013-07-29 20:21:00,
2013-07-29 16:51:00,67.9,59.0,30.03,West,271,0.0,-999.0,73,-99.99,,,0.00,weatherlink.com 1.10,2013-07-29 20:51:00,
2013-07-29 17:06:00,68.1,59.0,30.03,West,268,0.0,-999.0,73,-99.99,,,0.00,weatherlink.com 1.10,2013-07-29 21:06:00,
2013-07-29 17:21:00,68.3,60.0,30.03,West,262,3.0,-999.0,74,-99.99,,,0.00,weatherlink.com 1.10,2013-07-29 21:21:00,
2013-07-29 17:51:00,68.3,60.0,30.04,West,263,3.0,-999.0,75,-99.99,,,0.00,weatherlink.com 1.10,2013-07-29 21:51:00,
2013-07-29 18:06:00,68.0,60.0,30.04,West,267,0.0,-999.0,76,-99.99,,,0.00,weatherlink.com 1.10,2013-07-29 22:06:00,
2013-07-29 18:36:00,65.9,59.0,30.05,West,277,3.0,-999.0,78,-99.99,,,0.00,weatherlink.com 1.10,2013-07-29 22:36:00,
2013-07-29 19:21:00,63.4,60.0,30.05,SSW,207,0.0,-999.0,88,-99.99,,,0.00,weatherlink.com 1.10,2013-07-29 23:21:00,
2013-07-29 19:52:00,63.0,60.0,30.06,SSW,207,0.0,-999.0,91,-99.99,,,0.00,weatherlink.com 1.10,2013-07-29 23:52:00,
2013-07-29 20:22:00,62.6,60.0,30.05,SSW,207,0.0,-999.0,91,-99.99,,,0.00,weatherlink.com 1.10,2013-07-30 00:22:00,
2013-07-29 20:37:00,62.6,60.0,30.06,SSW,207,0.0,-999.0,90,-99.99,,,0.00,weatherlink.com 1.10,2013-07-30 00:37:00,
2013-07-29 20:52:00,62.4,59.0,30.06,SSW,207,0.0,-999.0,89,-99.99,,,0.00,weatherlink.com 1.10,2013-07-30 00:52:00,
2013-07-29 21:22:00,62.4,59.0,30.07,SSW,207,0.0,-999.0,89,-99.99,,,0.00,weatherlink.com 1.10,2013-07-30 01:22:00,
2013-07-29 21:52:00,61.6,59.0,30.08,SSW,207,0.0,-999.0,90,-99.99,,,0.00,weatherlink.com 1.10,2013-07-30 01:52:00,
2013-07-29 22:22:00,61.1,58.0,30.08,SSW,207,0.0,-999.0,89,-99.99,,,0.00,weatherlink.com 1.10,2013-07-30 02:22:00,